Previsão horária em Allariz

Hoje, 15 Junho, Terça-feira

Tempo Temperatura Precipitação Vento Pressão Humidade
00:00 +16°C° 0 mm 1 m/s 714 mmHg 85%
01:00 +16°C° 0 mm 1 m/s 714 mmHg 85%
02:00 +16°C° 0 mm 1 m/s 714 mmHg 84%
03:00 +16°C° 0 mm 1 m/s 714 mmHg 83%
04:00 +16°C° 0 mm 1 m/s 714 mmHg 82%
05:00 +18°C° 0 mm 1 m/s 714 mmHg 80%
06:00 +20°C° 0 mm 1 m/s 714 mmHg 70%
07:00 +23°C° 0 mm 1 m/s 714 mmHg 61%
08:00 +26°C° 0 mm 1 m/s 714 mmHg 51%
09:00 +28°C° 0 mm 1 m/s 714 mmHg 45%
10:00 +30°C° 0 mm 1 m/s 714 mmHg 39%
11:00 +31°C° 0 mm 1 m/s 714 mmHg 34%
12:00 +32°C° 0 mm 1 m/s 713 mmHg 32%
13:00 +32°C° 0 mm 1 m/s 712 mmHg 30%
14:00 +32°C° 0 mm 2 m/s 712 mmHg 28%
15:00 +30°C° 0 mm 2 m/s 711 mmHg 37%
16:00 +28°C° 0 mm 3 m/s 711 mmHg 45%
17:00 +26°C° 0 mm 3 m/s 711 mmHg 53%
18:00 +24°C° 0.5 mm 3 m/s 711 mmHg 64%
19:00 +21°C° 0.5 mm 2 m/s 711 mmHg 74%
20:00 +20°C° 0.5 mm 1 m/s 711 mmHg 84%
21:00 +19°C° 0.1 mm 1 m/s 711 mmHg 85%
22:00 +19°C° 0.1 mm 1 m/s 711 mmHg 85%
23:00 +19°C° 0.1 mm 1 m/s 711 mmHg 85%

Amanhã, 16 Junho, Quarta-feira

Tempo Temperatura Precipitação Vento Pressão Humidade
00:00 +18°C° 0 mm 1 m/s 710 mmHg 85%
01:00 +18°C° 0 mm 1 m/s 710 mmHg 85%
02:00 +18°C° 0 mm 1 m/s 709 mmHg 84%
03:00 +18°C° 0.2 mm 1 m/s 709 mmHg 86%
04:00 +18°C° 0.2 mm 1 m/s 709 mmHg 87%
05:00 +18°C° 0.2 mm 1 m/s 709 mmHg 89%
06:00 +20°C° 0.2 mm 1 m/s 709 mmHg 80%
07:00 +22°C° 0.2 mm 1 m/s 709 mmHg 72%
08:00 +24°C° 0.2 mm 1 m/s 710 mmHg 64%
09:00 +25°C° 0.4 mm 1 m/s 709 mmHg 60%
10:00 +26°C° 0.4 mm 1 m/s 709 mmHg 57%
11:00 +27°C° 0.4 mm 2 m/s 709 mmHg 53%
12:00 +26°C° 1.4 mm 2 m/s 709 mmHg 59%
13:00 +25°C° 1.4 mm 2 m/s 708 mmHg 64%
14:00 +24°C° 1.4 mm 2 m/s 708 mmHg 69%
15:00 +23°C° 1.6 mm 2 m/s 708 mmHg 74%
16:00 +21°C° 1.6 mm 2 m/s 708 mmHg 79%
17:00 +20°C° 1.6 mm 2 m/s 708 mmHg 83%
18:00 +18°C° 0.3 mm 2 m/s 708 mmHg 88%
19:00 +18°C° 0.3 mm 1 m/s 708 mmHg 92%
20:00 +15°C° 0.3 mm 0 m/s 709 mmHg 96%
21:00 +15°C° 0.1 mm 1 m/s 708 mmHg 96%
22:00 +15°C° 0.1 mm 1 m/s 708 mmHg 96%
23:00 +14°C° 0.1 mm 1 m/s 708 mmHg 96%

Depois de amanhã, 17 Junho, Quinta-feira

Tempo Temperatura Precipitação Vento Pressão Humidade
00:00 +14°C° 0.2 mm 1 m/s 708 mmHg 97%
01:00 +14°C° 0.2 mm 1 m/s 708 mmHg 97%
02:00 +14°C° 0.2 mm 1 m/s 708 mmHg 98%
03:00 +14°C° 0.1 mm 1 m/s 708 mmHg 97%
04:00 +14°C° 0.1 mm 1 m/s 708 mmHg 97%
05:00 +14°C° 0.1 mm 1 m/s 708 mmHg 96%
06:00 +15°C° 0.1 mm 1 m/s 708 mmHg 93%
07:00 +16°C° 0.1 mm 1 m/s 708 mmHg 90%
08:00 +16°C° 0.1 mm 1 m/s 708 mmHg 87%
09:00 +18°C° 0.1 mm 1 m/s 709 mmHg 83%
10:00 +19°C° 0.1 mm 1 m/s 709 mmHg 79%
11:00 +20°C° 0.1 mm 1 m/s 709 mmHg 75%
12:00 +19°C° 0.4 mm 2 m/s 709 mmHg 73%
13:00 +20°C° 0.4 mm 2 m/s 709 mmHg 72%
14:00 +20°C° 0.4 mm 2 m/s 709 mmHg 70%
15:00 +19°C° 0.6 mm 2 m/s 709 mmHg 75%
16:00 +18°C° 0.6 mm 2 m/s 709 mmHg 80%
17:00 +18°C° 0.6 mm 2 m/s 709 mmHg 85%
18:00 +17°C° 0.4 mm 2 m/s 709 mmHg 88%
19:00 +16°C° 0.4 mm 2 m/s 709 mmHg 91%
20:00 +15°C° 0.4 mm 1 m/s 710 mmHg 94%
21:00 +14°C° 0.1 mm 1 m/s 710 mmHg 95%
22:00 +14°C° 0.1 mm 1 m/s 710 mmHg 96%
23:00 +13°C° 0.1 mm 1 m/s 710 mmHg 97%

18 Junho, Sexta-feira

Tempo Temperatura Precipitação Vento Pressão Humidade
00:00 +13°C° 0.3 mm 1 m/s 710 mmHg 97%
01:00 +13°C° 0.3 mm 1 m/s 710 mmHg 97%
02:00 +13°C° 0.3 mm 1 m/s 710 mmHg 96%
03:00 +13°C° 0.1 mm 1 m/s 710 mmHg 96%
04:00 +13°C° 0.1 mm 1 m/s 710 mmHg 95%
05:00 +14°C° 0.1 mm 1 m/s 710 mmHg 95%
06:00 +15°C° 0.1 mm 1 m/s 710 mmHg 89%
07:00 +16°C° 0.1 mm 1 m/s 710 mmHg 84%
08:00 +19°C° 0.1 mm 1 m/s 710 mmHg 78%
09:00 +19°C° 1.3 mm 1 m/s 710 mmHg 76%
10:00 +20°C° 1.3 mm 1 m/s 710 mmHg 75%
11:00 +21°C° 1.3 mm 1 m/s 710 mmHg 73%
12:00 +21°C° 2.2 mm 1 m/s 710 mmHg 74%
13:00 +21°C° 2.2 mm 1 m/s 710 mmHg 76%
14:00 +21°C° 2.2 mm 1 m/s 709 mmHg 78%
15:00 +19°C° 2.6 mm 1 m/s 710 mmHg 83%
16:00 +18°C° 2.6 mm 1 m/s 710 mmHg 88%
17:00 +16°C° 2.6 mm 1 m/s 710 mmHg 93%
18:00 +15°C° 0.1 mm 1 m/s 710 mmHg 94%
19:00 +14°C° 0.1 mm 1 m/s 710 mmHg 95%
20:00 +13°C° 0.1 mm 1 m/s 710 mmHg 96%
21:00 +13°C° 0 mm 1 m/s 709 mmHg 96%
22:00 +13°C° 0 mm 1 m/s 709 mmHg 95%
23:00 +12°C° 0 mm 0 m/s 709 mmHg 95%

19 Junho, Sábado

Tempo Temperatura Precipitação Vento Pressão Humidade
00:00 +13°C° 0 mm 1 m/s 709 mmHg 95%
01:00 +13°C° 0 mm 1 m/s 709 mmHg 95%
02:00 +13°C° 0 mm 1 m/s 709 mmHg 95%
03:00 +13°C° 0 mm 1 m/s 709 mmHg 95%
04:00 +13°C° 0 mm 1 m/s 709 mmHg 95%
05:00 +12°C° 0 mm 0 m/s 709 mmHg 95%
06:00 +15°C° 0.1 mm 1 m/s 709 mmHg 91%
07:00 +16°C° 0.1 mm 1 m/s 709 mmHg 86%
08:00 +18°C° 0.1 mm 1 m/s 709 mmHg 81%
09:00 +18°C° 0.5 mm 1 m/s 709 mmHg 81%
10:00 +18°C° 0.5 mm 1 m/s 709 mmHg 80%
11:00 +18°C° 0.5 mm 2 m/s 710 mmHg 80%
12:00 +18°C° 1.1 mm 1 m/s 710 mmHg 82%
13:00 +18°C° 1.1 mm 1 m/s 710 mmHg 85%
14:00 +16°C° 1.1 mm 1 m/s 710 mmHg 87%
15:00 +16°C° 0.8 mm 1 m/s 710 mmHg 89%
16:00 +16°C° 0.8 mm 1 m/s 710 mmHg 90%
17:00 +15°C° 0.8 mm 1 m/s 710 mmHg 92%
18:00 +15°C° 0.3 mm 1 m/s 710 mmHg 93%
19:00 +14°C° 0.3 mm 1 m/s 711 mmHg 94%
20:00 +14°C° 0.3 mm 1 m/s 711 mmHg 94%
21:00 +13°C° 0 mm 1 m/s 711 mmHg 94%
22:00 +13°C° 0 mm 1 m/s 711 mmHg 94%
23:00 +12°C° 0 mm 1 m/s 711 mmHg 94%

20 Junho, Domingo

Tempo Temperatura Precipitação Vento Pressão Humidade
00:00 +12°C° 0 mm 1 m/s 711 mmHg 94%
01:00 +12°C° 0 mm 1 m/s 711 mmHg 94%
02:00 +11°C° 0 mm 1 m/s 711 mmHg 94%
03:00 +12°C° 0 mm 1 m/s 711 mmHg 95%
04:00 +12°C° 0 mm 1 m/s 711 mmHg 95%
05:00 +13°C° 0 mm 1 m/s 711 mmHg 95%
06:00 +14°C° 0 mm 1 m/s 711 mmHg 90%
07:00 +15°C° 0 mm 1 m/s 711 mmHg 85%
08:00 +16°C° 0 mm 1 m/s 711 mmHg 81%
09:00 +17°C° 0.1 mm 2 m/s 711 mmHg 74%
10:00 +19°C° 0.1 mm 2 m/s 711 mmHg 67%
11:00 +20°C° 0.1 mm 3 m/s 711 mmHg 60%
12:00 +20°C° 0 mm 3 m/s 711 mmHg 59%
13:00 +20°C° 0 mm 3 m/s 711 mmHg 58%
14:00 +20°C° 0 mm 3 m/s 711 mmHg 56%
15:00 +19°C° 0 mm 3 m/s 711 mmHg 59%
16:00 +19°C° 0 mm 3 m/s 711 mmHg 61%
17:00 +18°C° 0 mm 3 m/s 710 mmHg 64%
18:00 +17°C° 0 mm 2 m/s 711 mmHg 70%
19:00 +15°C° 0 mm 2 m/s 711 mmHg 77%
20:00 +14°C° 0 mm 1 m/s 711 mmHg 84%
21:00 +14°C° 0.1 mm 1 m/s 711 mmHg 86%
22:00 +13°C° 0.1 mm 1 m/s 710 mmHg 88%
23:00 +13°C° 0.1 mm 1 m/s 710 mmHg 91%
Mostrar mais